QPF
0.00 0.00 0.00 0.00 0.00 0.00 0.00 0.00 0.00 0.00 0.00 0.00 0.00 0.00 0.00 0.00 0.00 0.00 0.00 0.00 0.00 0.00 0.00 0.00 0.00 0.00 0.00 0.00 0.00 0.01 0.00 0.01 0.01
0.00 0.00 0.00 0.00 0.00 0.00 0.00 0.00 0.00 0.00 0.00 0.00 0.00 0.00 0.00 0.00 0.00 0.00 0.00 0.00 0.00 0.00 0.00 0.00 0.00 0.00 0.00 0.00 0.00 0.00 0.00 0.01 0.01
0.00 0.00 0.00 0.00 0.00 0.00 0.00 0.00 0.00 0.00 0.00 0.00 0.00 0.00 0.00 0.00 0.00 0.00 0.00 0.00 0.00 0.00 0.00 0.00 0.00 0.00 0.00 0.00 0.00 0.00 0.00 0.00 0.00
0.00 0.00 0.00 0.00 0.00 0.00 0.00 0.00 0.00 0.00 0.00 0.00 0.00 0.00 0.00 0.00 0.00 0.00 0.00 0.00 0.00 0.00 0.00 0.00 0.00 0.00 0.00 0.00 0.00 0.00 0.00 0.00 0.00
0.00 0.00 0.00 0.00 0.00 0.00 0.00 0.00 0.00 0.00 0.00 0.00 0.00 0.00 0.00 0.00 0.00 0.00 0.00 0.00 0.00 0.00 0.00 0.00 0.00 0.00 0.00 0.00 0.00 0.00 0.00 0.00 0.00
0.00 0.00 0.00 0.00 0.00 0.00 0.00 0.00 0.00 0.00 0.00 0.00 0.00 0.00 0.00 0.00 0.00 0.00 0.00 0.00 0.00 0.00 0.00 0.00 0.00 0.00 0.00 0.00 0.00 0.00 0.00 0.00 0.00
0.00 0.00 0.00 0.00 0.00 0.00 0.00 0.00 0.00 0.00 0.00 0.00 0.00 0.00 0.00 0.00 0.00 0.00 0.00 0.00 0.00 0.00 0.00 0.00 0.00 0.00 0.00 0.00 0.00 0.00 0.00 0.00 0.00
0.00 0.00 0.00 0.00 0.00 0.00 0.00 0.00 0.00 0.00 0.00 0.00 0.00 0.00 0.00 0.00 0.00 0.00 0.00 0.00 0.00 0.00 0.00 0.00 0.00 0.00 0.00 0.00 0.00 0.00 0.00 0.00 0.00
0.00 0.00 0.00 0.00 0.00 0.00 0.00 0.00 0.00 0.00 0.00 0.00 0.00 0.00 0.00 0.00 0.00 0.00 0.00 0.00 0.00 0.00 0.00 0.00 0.00 0.00 0.00 0.00 0.00 0.00 0.00 0.00 0.00
0.00 0.00 0.00 0.00 0.00 0.00 0.00 0.00 0.00 0.00 0.00 0.00 0.00 0.00 0.00 0.00 0.00 0.00 0.00 0.00 0.00 0.00 0.00 0.00 0.00 0.00 0.00 0.00 0.00 0.00 0.00 0.00 0.00
0.00 0.00 0.00 0.00 0.00 0.00 0.00 0.00 0.00 0.00 0.00 0.00 0.00 0.00 0.00 0.00 0.00 0.00 0.00 0.00 0.00 0.00 0.00 0.00 0.00 0.00 0.00 0.00 0.00 0.00 0.00 0.00 0.00
0.00 0.00 0.00 0.00 0.00 0.00 0.00 0.00 0.00 0.00 0.00 0.00 0.00 0.00 0.00 0.00 0.00 0.00 0.00 0.00 0.00 0.00 0.00 0.00 0.00 0.00 0.00 0.00 0.00 0.00 0.00 0.00 0.00
0.00 0.00 0.00 0.00 0.00 0.00 0.00 0.00 0.00 0.00 0.00 0.00 0.00 0.00 0.00 0.00 0.00 0.00 0.00 0.00 0.00 0.00 0.00 0.00 0.00 0.00 0.00 0.00 0.00 0.00 0.00 0.00 0.00
0.00 0.00 0.00 0.00 0.00 0.00 0.00 0.00 0.00 0.00 0.00 0.00 0.00 0.00 0.00 0.00 0.00 0.00 0.00 0.00 0.00 0.00 0.00 0.00 0.00 0.00 0.00 0.00 0.00 0.00 0.00 0.00 0.00
0.00 0.00 0.00 0.00 0.00 0.00 0.00 0.00 0.00 0.00 0.00 0.00 0.00 0.00 0.00 0.00 0.00 0.00 0.00 0.00 0.00 0.00 0.00 0.00 0.00 0.00 0.00 0.00 0.00 0.00 0.00 0.00 0.00
0.00 0.00 0.00 0.00 0.00 0.00 0.00 0.00 0.00 0.00 0.00 0.00 0.00 0.00 0.00 0.00 0.00 0.00 0.00 0.00 0.00 0.00 0.00 0.00 0.00 0.00 0.00 0.00 0.00 0.00 0.00 0.00 0.00
0.00 0.00 0.00 0.00 0.00 0.00 0.00 0.00 0.00 0.00 0.00 0.00 0.00 0.00 0.00 0.00 0.00 0.00 0.00 0.00 0.00 0.00 0.00 0.00 0.00 0.00 0.00 0.00 0.00 0.00 0.00 0.00 0.00
0.00 0.00 0.00 0.00 0.00 0.00 0.00 0.00 0.00 0.00 0.00 0.00 0.00 0.00 0.00 0.00 0.00 0.00 0.00 0.00 0.00 0.00 0.00 0.00 0.00 0.00 0.00 0.00 0.00 0.00 0.00 0.01 0.02
0.00 0.00 0.00 0.00 0.00 0.00 0.00 0.00 0.00 0.00 0.00 0.00 0.00 0.00 0.00 0.00 0.00 0.00 0.00 0.00 0.00 0.00 0.00 0.00 0.00 0.00 0.00 0.00 0.00 0.00 0.00 0.01 0.03
0.00 0.00 0.00 0.00 0.00 0.00 0.00 0.00 0.00 0.00 0.00 0.00 0.00 0.00 0.00 0.00 0.00 0.00 0.00 0.00 0.00 0.00 0.00 0.00 0.00 0.00 0.00 0.00 0.00 0.00 0.00 0.01 0.04
MSLP
1019.21 1019.26 1019.45 1019.38 1019.17 1019.10 1019.12 1019.03 1018.80 1018.83 1018.78 1018.70 1018.74 1018.68 1018.77 1019.09 1019.06 1018.90 1018.49 1018.02 1017.09 1016.60 1016.28 1016.18 1016.09 1016.02 1015.88 1015.82 1015.73 1015.64 1015.52 1015.32 1015.13
1019.39 1019.59 1019.69 1019.60 1019.45 1019.39 1019.41 1019.39 1019.17 1019.32 1019.09 1019.15 1019.21 1019.06 1019.10 1019.41 1019.41 1019.22 1018.98 1018.45 1017.47 1016.99 1016.65 1016.48 1016.33 1016.20 1016.14 1016.00 1015.85 1015.70 1015.64 1015.55 1015.37
1019.65 1019.92 1019.92 1019.85 1019.74 1019.86 1019.77 1019.77 1019.64 1019.64 1019.60 1019.58 1019.63 1019.49 1019.45 1019.74 1019.61 1019.36 1019.18 1018.42 1017.78 1017.37 1017.12 1016.86 1016.65 1016.45 1016.30 1016.17 1016.09 1015.97 1015.81 1015.66 1015.49
1020.06 1020.34 1020.15 1020.27 1020.24 1020.41 1020.38 1020.26 1020.20 1020.09 1020.11 1019.98 1019.96 1019.95 1019.88 1020.10 1019.94 1019.61 1019.42 1018.61 1018.18 1017.85 1017.51 1017.27 1017.07 1016.86 1016.69 1016.49 1016.31 1016.12 1015.98 1015.81 1015.60
1020.78 1020.94 1020.63 1020.88 1020.77 1020.88 1020.86 1020.63 1020.80 1020.65 1020.62 1020.43 1020.36 1020.35 1020.33 1020.37 1020.17 1019.98 1019.57 1018.84 1018.36 1018.11 1017.77 1017.50 1017.21 1016.99 1016.77 1016.65 1016.55 1016.28 1016.09 1015.88 1015.67
1021.53 1021.32 1021.37 1021.34 1021.34 1021.37 1021.37 1021.17 1021.28 1021.29 1021.19 1021.05 1020.88 1020.84 1020.87 1020.71 1020.65 1020.46 1019.73 1019.22 1018.86 1018.50 1018.20 1017.89 1017.53 1017.23 1016.90 1016.52 1016.33 1016.14 1015.98 1015.84 1015.59
1021.99 1022.05 1021.84 1022.02 1022.13 1021.95 1021.85 1021.73 1021.80 1021.85 1021.81 1021.81 1021.47 1021.42 1021.32 1021.21 1021.15 1020.78 1020.11 1019.57 1019.20 1018.76 1018.44 1018.12 1017.82 1017.53 1017.22 1016.81 1016.49 1016.15 1015.77 1015.57 1015.35
1022.49 1022.74 1022.82 1022.80 1022.63 1022.62 1022.52 1022.51 1022.33 1022.16 1022.10 1021.97 1021.81 1021.64 1021.52 1021.49 1021.26 1021.03 1020.32 1019.84 1019.37 1018.94 1018.51 1018.19 1017.86 1017.52 1017.12 1016.67 1016.36 1016.09 1015.75 1015.45 1015.08
1022.78 1023.09 1023.00 1022.99 1022.86 1022.84 1022.92 1022.73 1022.46 1022.32 1022.15 1022.10 1021.98 1021.77 1021.69 1021.58 1021.41 1021.07 1020.51 1020.06 1019.56 1019.11 1018.68 1018.24 1017.89 1017.49 1017.01 1016.57 1016.25 1015.86 1015.54 1015.16 1014.86
1022.98 1023.09 1023.11 1023.08 1022.99 1023.05 1023.03 1022.82 1022.60 1022.45 1022.31 1022.09 1021.93 1021.76 1021.66 1021.49 1021.20 1021.11 1020.74 1020.22 1019.80 1019.28 1018.81 1018.48 1017.95 1017.58 1017.15 1016.68 1016.20 1015.77 1015.28 1014.73 1014.32
1022.90 1023.10 1023.24 1023.10 1023.05 1023.11 1023.04 1022.89 1022.72 1022.66 1022.46 1022.23 1022.01 1021.81 1021.54 1021.37 1021.20 1021.02 1020.84 1020.30 1019.94 1019.55 1019.18 1018.70 1018.25 1017.88 1017.39 1017.00 1016.53 1016.05 1015.54 1014.82 1014.13
1022.87 1023.23 1023.22 1023.14 1023.10 1023.08 1023.02 1022.94 1022.79 1022.67 1022.43 1022.38 1022.00 1021.72 1021.46 1021.27 1021.05 1020.77 1020.59 1020.51 1020.20 1019.75 1019.32 1018.86 1018.34 1017.88 1017.63 1017.03 1016.52 1016.03 1015.39 1014.77 1014.05
1022.92 1023.07 1023.17 1023.14 1023.17 1023.23 1023.21 1023.22 1023.07 1022.94 1022.87 1022.62 1022.15 1021.89 1021.59 1021.34 1021.08 1020.84 1020.65 1020.57 1020.22 1019.90 1019.49 1018.99 1018.51 1018.21 1017.71 1017.16 1016.74 1016.12 1015.46 1014.84 1014.05
1022.74 1022.95 1023.15 1023.13 1023.29 1023.49 1023.42 1023.40 1023.37 1023.45 1023.24 1022.71 1022.09 1021.83 1021.52 1021.23 1020.89 1020.92 1020.78 1020.56 1020.33 1020.10 1019.78 1019.26 1018.86 1018.40 1017.80 1017.30 1016.69 1016.01 1015.30 1014.65 1013.93
1022.60 1022.96 1023.09 1023.15 1023.43 1023.62 1023.67 1023.69 1023.69 1023.75 1023.50 1022.78 1022.09 1021.65 1021.34 1021.17 1021.03 1020.96 1020.57 1020.38 1020.15 1019.91 1019.56 1019.19 1018.87 1018.32 1017.86 1017.25 1016.62 1015.91 1015.16 1014.41 1013.71
1022.53 1022.84 1023.06 1023.29 1023.51 1023.65 1023.62 1023.81 1023.94 1023.83 1023.46 1023.00 1022.21 1021.62 1021.26 1021.20 1020.95 1020.51 1020.51 1020.24 1020.02 1019.83 1019.40 1018.97 1018.50 1018.04 1017.52 1016.96 1016.36 1015.45 1014.56 1013.84 1013.13
1022.31 1022.69 1023.05 1023.21 1023.49 1023.60 1023.71 1023.85 1024.05 1024.03 1023.87 1023.67 1023.23 1022.56 1021.80 1021.28 1020.76 1020.60 1020.28 1019.98 1019.99 1019.68 1019.24 1018.77 1018.21 1017.69 1017.24 1016.69 1015.81 1015.09 1014.25 1013.49 1012.54
1022.14 1022.45 1022.75 1023.03 1023.29 1023.58 1023.71 1023.85 1024.10 1024.29 1024.03 1023.64 1023.57 1023.34 1023.09 1022.19 1020.98 1020.55 1020.27 1019.95 1019.88 1019.61 1019.18 1018.63 1017.98 1017.40 1016.83 1016.29 1015.72 1014.92 1014.01 1012.94 1011.92
1021.90 1022.17 1022.49 1022.85 1023.23 1023.45 1023.54 1023.69 1024.01 1024.14 1024.10 1023.75 1023.45 1023.48 1023.45 1023.10 1021.81 1020.84 1020.24 1019.91 1019.56 1019.21 1018.80 1018.24 1017.61 1017.11 1016.48 1015.74 1014.99 1014.12 1013.33 1012.26 1011.06
1021.68 1021.96 1022.37 1022.73 1023.04 1023.28 1023.49 1023.67 1023.80 1023.88 1023.83 1023.75 1023.57 1023.41 1023.17 1022.95 1022.79 1020.86 1020.03 1019.71 1019.10 1018.69 1018.29 1017.74 1017.20 1016.49 1015.93 1015.23 1014.45 1013.53 1012.49 1011.42 1010.53
Thickness
5663 5662 5659 5659 5661 5660 5658 5658 5660 5659 5658 5658 5658 5658 5657 5656 5657 5658 5660 5664 5668 5672 5674 5675 5676 5677 5678 5678 5679 5681 5682 5684 5685
5658 5655 5654 5654 5655 5654 5653 5652 5653 5651 5652 5651 5650 5652 5651 5650 5651 5651 5653 5657 5661 5665 5667 5668 5669 5671 5671 5673 5674 5676 5677 5678 5680
5652 5649 5648 5649 5649 5648 5647 5647 5646 5645 5644 5644 5643 5644 5645 5644 5644 5645 5646 5650 5654 5657 5659 5661 5662 5663 5665 5666 5668 5669 5670 5671 5673
5646 5642 5643 5642 5642 5640 5640 5639 5638 5638 5636 5636 5635 5635 5636 5636 5636 5637 5638 5641 5644 5647 5650 5652 5654 5655 5656 5658 5660 5662 5663 5664 5666
5637 5634 5636 5634 5634 5632 5631 5632 5629 5629 5628 5627 5627 5627 5627 5627 5627 5628 5629 5633 5636 5638 5641 5643 5645 5647 5649 5650 5651 5653 5655 5657 5659
5628 5627 5627 5626 5625 5624 5623 5623 5621 5620 5619 5617 5617 5616 5616 5616 5616 5616 5619 5622 5624 5626 5628 5631 5634 5636 5639 5642 5644 5646 5647 5649 5652
5619 5618 5618 5616 5616 5616 5615 5614 5612 5610 5609 5607 5606 5605 5604 5604 5603 5604 5607 5610 5612 5615 5617 5619 5622 5624 5627 5630 5632 5635 5639 5641 5643
5613 5610 5609 5609 5608 5608 5607 5605 5603 5602 5599 5598 5596 5595 5594 5593 5593 5594 5596 5598 5600 5603 5606 5608 5611 5613 5617 5621 5623 5625 5627 5630 5634
5606 5603 5603 5602 5602 5601 5598 5597 5596 5594 5592 5589 5587 5585 5584 5583 5583 5584 5585 5587 5589 5591 5593 5596 5598 5601 5604 5608 5610 5614 5616 5619 5621
5599 5597 5596 5596 5594 5592 5591 5589 5588 5585 5582 5580 5578 5577 5576 5575 5575 5574 5573 5574 5576 5578 5581 5582 5585 5587 5589 5592 5595 5597 5601 5605 5609
5593 5591 5589 5589 5587 5585 5583 5581 5579 5576 5573 5571 5568 5567 5566 5566 5564 5563 5562 5563 5564 5565 5566 5567 5568 5569 5571 5572 5574 5576 5580 5585 5590
5587 5584 5583 5582 5580 5578 5576 5574 5572 5569 5566 5562 5561 5559 5557 5556 5555 5555 5554 5552 5550 5551 5551 5551 5552 5553 5551 5553 5555 5556 5559 5563 5568
5580 5579 5577 5575 5572 5569 5567 5563 5560 5558 5554 5552 5551 5549 5548 5546 5544 5542 5541 5539 5537 5537 5535 5535 5534 5532 5532 5532 5532 5533 5535 5538 5543
5575 5573 5569 5567 5563 5559 5556 5552 5548 5544 5543 5543 5542 5540 5539 5536 5533 5530 5527 5524 5522 5519 5517 5515 5513 5512 5510 5508 5508 5509 5510 5513 5516
5569 5564 5561 5558 5554 5549 5544 5539 5536 5532 5530 5532 5533 5531 5530 5526 5523 5518 5515 5510 5507 5502 5499 5496 5492 5488 5483 5482 5482 5481 5481 5482 5484
5561 5557 5553 5549 5544 5539 5535 5529 5522 5519 5518 5518 5520 5519 5517 5514 5510 5507 5501 5496 5491 5485 5479 5474 5470 5465 5460 5456 5452 5451 5449 5447 5446
5554 5550 5545 5540 5535 5530 5524 5518 5511 5506 5503 5500 5499 5503 5504 5502 5501 5493 5487 5480 5473 5466 5456 5450 5442 5436 5433 5425 5415 5405 5397 5391 5389
5547 5542 5538 5533 5526 5519 5513 5507 5500 5493 5489 5487 5483 5479 5476 5477 5484 5479 5469 5461 5452 5444 5433 5423 5412 5410 5402 5386 5371 5356 5348 5343 5342
5539 5535 5530 5524 5516 5510 5503 5497 5490 5483 5478 5474 5471 5463 5455 5451 5456 5460 5451 5444 5432 5424 5413 5399 5390 5381 5362 5341 5327 5321 5319 5317 5318
5531 5527 5521 5514 5508 5501 5494 5487 5480 5474 5468 5462 5457 5449 5442 5434 5427 5437 5439 5431 5419 5402 5394 5379 5369 5350 5330 5319 5312 5307 5302 5302 5300